www.pogodaiklimat.ru

Погода и климат >> Архив погоды >> Швейцария >> Мюлеберг


ПОГОДА в Мюлеберге

  • Прогноз погоды в Мюлеберге
  • Монитор погоды в Мюлеберге

АРХИВ ПОГОДЫ в Мюлеберге

Время (UTC), дата Ветер
(напр.,м/с)
 
Видим.   Явления Облачность Т
(С)
Тd
(С)
f
(%)
Тe
(С)
Тes
(С)
Комфортность P
(гПа)
Po
(гПа)
Тmin
(С)
Tmax
(С)
R
(мм)
R24
(мм)
S
(см)
07 12.05 В 2
{3}
н/о н/о +8.0 +6.9 93 +6 +6 1028.1 970.2
08 12.05 В 1
{3}
н/о н/о +9.5 +5.4 76 +9 +9 1028.1 970.5
09 12.05 В 5
{8}
н/о н/о +10.8 +3.6 61 +8 +8 1027.8 970.5
10 12.05 СЗ 2
{9}
н/о н/о +10.9 +4.8 66 +10 +10 1028.0 970.7
11 12.05 В 6
{10}
н/о н/о +9.9 +3.4 64 +7 +7 1028.6 971.1
12 12.05 В 6
{10}
н/о н/о +12.3 +3.3 54 +10 +10 1027.8 970.8
13 12.05 В 4
{12}
н/о н/о +12.1 +2.9 53 +10 +10 1027.9 970.9
14 12.05 В 4
{9}
н/о н/о +12.3 +2.3 50 +11 +11 1027.7 970.7
15 12.05 СВ 3
{12}
н/о н/о +11.6 +1.3 49 +10 +10 1028.0 970.9
16 12.05 СЗ 3
{10}
н/о н/о +10.1 +3.4 63 +8 +8 1028.8 971.3
17 12.05 СВ 3
{8}
н/о н/о +11.4 +3.6 59 +10 +10 1028.6 971.4
18 12.05 СВ 2
{12}
н/о н/о +10.5 +3.4 61 +9 +9 1029.3 971.9 +12.9
19 12.05 В 3
{7}
н/о н/о +9.7 +1.5 57 +8 +8 1030.4 972.7
20 12.05 В 2
{6}
н/о н/о +9.0 +1.1 58 +8 +8 1031.1 973.3
21 12.05 В 2
{7}
н/о н/о +8.5 +1.5 61 +7 +7 1031.4 973.4
22 12.05 В 2
{5}
н/о н/о +8.1 +1.7 64 +6 +6 1031.3 973.3
23 12.05 В 2
{5}
н/о н/о +7.9 +2.0 66 +6 +6 1031.2 973.1
00 13.05 В 2
{7}
н/о н/о +7.2 +2.2 71 +5 +5 1030.9 972.7
01 13.05 СВ 2
{5}
н/о н/о +6.8 +2.2 72 +5 +5 1030.6 972.3
02 13.05 В 2
{5}
н/о н/о +6.4 +2.1 74 +4 +4 1030.2 971.9
03 13.05 В 3
{8}
н/о н/о +6.0 +2.1 76 +3 +3 1030.2 971.8
04 13.05 В 3
{7}
н/о н/о +5.5 +1.9 78 +3 +3 1030.4 971.9
05 13.05 В 4
{8}
н/о н/о +5.8 +1.3 73 +2 +2 1030.4 971.9
06 13.05 В 5
{11}
н/о н/о +7.0 +2.1 71 +3 +3 1030.2 972.0 +5.4
07 13.05 В 5
{12}
н/о н/о +7.7 +2.4 69 +4 +4 1029.9 971.9
08 13.05 В 5
{13}
н/о н/о +8.9 +2.4 64 +6 +6 1029.7 971.9
09 13.05 В 6
{14}
н/о н/о +10.0 +2.6 60 +7 +7 1029.5 972.0
10 13.05 В 6
{14}
н/о н/о +11.2 +2.5 55 +8 +8 1029.0 971.7
11 13.05 В 8
{17}
н/о н/о +12.4 +1.5 47 +10 +10 1028.7 971.7
12 13.05 В 6
{19}
н/о н/о +12.9 +1.4 45 +11 +11 1028.6 971.7
13 13.05 В 7
{17}
н/о н/о +13.0 +1.1 44 +11 +11 1028.7 971.8
14 13.05 В 5
{15}
н/о н/о +12.6 +1.4 46 +11 +11 1028.6 971.6
15 13.05 В 7
{17}
н/о н/о +12.8 +1.3 45 +11 +11 1028.3 971.4
16 13.05 В 6
{15}
н/о н/о +12.4 +1.2 46 +10 +10 1028.6 971.6
17 13.05 В 6
{15}
н/о н/о +12.5 +0.9 45 +10 +10 1028.5 971.5
18 13.05 В 5
{17}
н/о н/о +11.8 +1.0 47 +10 +10 1028.8 971.7 +13.9
19 13.05 В 3
{9}
н/о н/о +10.4 +0.6 51 +9 +9 1029.0 971.6
20 13.05 В 3
{7}
н/о н/о +9.7 +0.1 51 +8 +8 1029.0 971.4
21 13.05 В 4
{9}
н/о н/о +8.9 +0.2 54 +7 +7 1029.0 971.3
22 13.05 В 2
{7}
н/о н/о +7.7 +0.9 62 +6 +6 1028.7 970.7
23 13.05 В 2
{4}
н/о н/о +7.2 +0.9 64 +5 +5 1028.2 970.2
00 14.05 В 1
{9}
н/о н/о +6.3 +1.5 71 +5 +5 1028.0 969.8
01 14.05 В 3
{6}
н/о н/о +6.6 +1.4 69 +4 +4 1027.3 969.2
02 14.05 В 3
{7}
н/о н/о +6.5 -0.2 62 +4 +4 1027.3 969.2
03 14.05 В 3
{7}
н/о н/о +5.5 -0.4 66 +3 +3 1027.1 968.8
04 14.05 В 3
{6}
н/о н/о +5.3 -0.8 65 +3 +3 1027.0 968.6
05 14.05 В 4
{8}
н/о н/о +5.6 -0.9 63 +2 +2 1027.0 968.7
06 14.05 В 4
{10}
н/о н/о +7.0 -0.4 59 +4 +4 1026.5 968.5 +5.3
07 14.05 В 5
{10}
н/о н/о +8.4 +0.3 57 +5 +5 1026.1 968.4
08 14.05 В 5
{11}
н/о н/о +10.1 +0.5 51 +7 +7 1025.4 968.1
09 14.05 В 6
{14}
н/о н/о +11.8 +0.5 46 +9 +9 1024.4 967.5
10 14.05 В 5
{15}
н/о н/о +13.1 +0.3 41 +11 +11 1023.7 967.1
11 14.05 СВ 5
{15}
н/о н/о +13.4 -0.5 38 +12 +12 1023.7 967.2
12 14.05 В 7
{16}
н/о н/о +14.0 -1.8 34 +12 +12 1023.4 967.0
13 14.05 СВ 5
{16}
н/о н/о +13.4 -2.7 33 +12 +12 1023.2 966.7
14 14.05 В 5
{16}
н/о н/о +13.8 -2.6 32 +12 +12 1023.0 966.6
15 14.05 В 7
{16}
н/о н/о +13.7 -2.4 33 +12 +12 1022.5 966.1
16 14.05 СВ 6
{14}
н/о н/о +13.3 -3.5 31 +12 +12 1022.4 965.9
17 14.05 В 6
{13}
н/о н/о +12.6 -3.6 32 +11 +11 1022.6 966.0
18 14.05 В 3
{16}
н/о н/о +11.6 -2.8 36 +11 +11 1022.7 965.9 +14.0
19 14.05 В 2
{8}
н/о н/о +10.1 -3.2 39 +9 +9 1023.0 965.8
20 14.05 В 2
{5}
н/о н/о +8.8 -2.3 46 +8 +8 1023.2 965.8
21 14.05 СВ 3
{8}
н/о н/о +8.1 -1.9 49 +6 +6 1023.2 965.6
22 14.05 В 1
{5}
н/о н/о +6.8 -0.8 58 +6 +6 1023.5 965.6
23 14.05 В 4
{6}
н/о н/о +7.4 -0.8 56 +5 +5 1023.0 965.3
00 15.05 В 3
{8}
н/о н/о +6.5 -0.7 60 +4 +4 1023.0 965.1
01 15.05 В 3
{6}
н/о н/о +5.8 -0.6 63 +3 +3 1022.5 964.5
02 15.05 В 3
{6}
н/о н/о +5.2 -0.7 66 +2 +2 1022.1 964.0
03 15.05 В 3
{9}
н/о н/о +4.6 -0.1 72 +1 +1 1021.6 963.4
04 15.05 СВ 2
{7}
н/о н/о +4.2 0.0 74 +2 +2 1021.6 963.3
05 15.05 СВ 2
{5}
н/о н/о +4.4 +0.5 76 +2 +2 1021.4 963.2
06 15.05 СВ 2
{9}
н/о н/о +5.6 +1.0 72 +3 +3 1021.2 963.2 +4.1
07 15.05 В 4
{10}
н/о н/о +6.9 +1.1 67 +4 +4 1020.8 963.1
08 15.05 В 6
{14}
н/о н/о +8.1 +1.1 61 +4 +4 1020.2 962.8
09 15.05 В 6
{16}
н/о н/о +8.9 +0.9 57 +6 +6 1020.0 962.8
10 15.05 В 8
{16}
н/о н/о +10.4 +0.7 51 +7 +7 1019.1 962.2
11 15.05 В 6
{15}
н/о н/о +11.5 +1.0 48 +9 +9 1018.4 961.8
12 15.05 СВ 5
{16}
н/о н/о +11.3 +0.4 47 +9 +9 1018.3 961.6
13 15.05 В 6
{13}
н/о н/о +11.4 +0.7 48 +9 +9 1018.2 961.6
14 15.05 В 6
{13}
н/о н/о +11.3 +0.4 47 +9 +9 1018.3 961.6
15 15.05 В 4
{13}
н/о н/о +11.0 +0.5 48 +9 +9 1018.3 961.6
16 15.05 В 4
{10}
н/о н/о +10.9 +0.8 50 +9 +9 1018.4 961.7
17 15.05 В 4
{10}
н/о н/о +10.7 +0.9 51 +9 +9 1018.5 961.7
18 15.05 В 3
{13}
н/о н/о +10.3 +1.0 52 +9 +9 1018.7 961.8 +12.6
19 15.05 В 2
{6}
н/о н/о +9.5 +1.2 56 +8 +8 1018.7 961.7
20 15.05 СВ 2
{5}
н/о н/о +8.8 +1.0 58 +7 +7 1018.8 961.6
21 15.05 В 2
{6}
н/о н/о +7.5 +1.4 65 +6 +6 1018.6 961.2
22 15.05 СВ 1
{3}
н/о н/о +6.2 +1.8 73 +5 +5 1018.4 960.7
23 15.05 СВ 1
{2}
н/о н/о +5.2 +2.1 80 +5 +5 1018.0 960.1
00 16.05 штиль 0
{6}
н/о н/о +4.4 +2.2 86 +3 +3 1017.6 959.6
01 16.05 штиль 0
{1}
н/о н/о +3.7 +1.9 88 +3 +3 1016.9 958.8
02 16.05 В 1
{2}
н/о н/о +3.9 +1.9 87 +4 +4 1016.5 958.4
03 16.05 В 3
{5}
н/о н/о +4.0 +1.4 83 +1 +1 1016.0 958.0
04 16.05 В 4
{7}
н/о н/о +4.8 +1.0 76 +1 +1 1015.7 957.9
05 16.05 ЮВ 5
{9}
н/о н/о +4.9 +1.2 77 +1 +1 1015.9 958.1
06 16.05 В 3
{9}
н/о н/о +5.9 +1.8 75 +3 +3 1015.7 958.1 +3.4
07 16.05 В 3
{7}
н/о н/о +7.7 +2.5 70 +5 +5 1015.0 957.8
08 16.05 ЮВ 4
{7}
н/о н/о +9.5 +3.3 65 +7 +7 1014.3 957.5
09 16.05 В 4
{7}
н/о н/о +10.5 +3.3 61 +8 +8 1013.4 956.9
10 16.05 В 4
{8}
н/о н/о +11.7 +4.0 59 +10 +10 1012.8 956.5
11 16.05 В 4
{7}
н/о н/о +12.6 +4.5 58 +11 +11 1012.3 956.2
12 16.05 В 2
{8}
н/о н/о +13.1 +4.1 54 +13 +13 1011.8 955.9
13 16.05 ЮВ 2
{5}
н/о н/о +14.5 +4.8 52 +14 +14 1011.1 955.5
14 16.05 В 3
{7}
н/о н/о +13.8 +4.5 53 +13 +13 1010.6 954.9
15 16.05 В 2
{7}
н/о н/о +13.9 +4.9 55 +14 +14 1010.1 954.4
16 16.05 В 3
{6}
н/о н/о +14.4 +5.0 53 +14 +14 1009.4 953.9
17 16.05 СВ 2
{6}
н/о н/о +14.2 +4.4 52 +14 +14 1009.2 953.6
18 16.05 СВ 2
{7}
н/о н/о +13.3 +4.3 54 +13 +13 1009.4 953.6 +15.1
19 16.05 штиль 0
{4}
н/о н/о +10.8 +5.4 69 +10 +10 1009.8 953.5
20 16.05 В 1
{3}
н/о н/о +9.5 +5.0 73 +9 +9 1010.1 953.5
21 16.05 СВ 1
{4}
н/о н/о +8.8 +4.8 76 +9 +9 1010.0 953.3
22 16.05 СЗ 1
{1}
н/о н/о +7.4 +4.9 84 +8 +8 1009.8 952.8
23 16.05 штиль 0
{1}
н/о н/о +6.4 +4.6 88 +5 +5 1009.8 952.6
00 17.05 штиль 0
{4}
н/о н/о +5.6 +4.4 92 +5 +5 1009.6 952.3
01 17.05 штиль 0 н/о н/о +4.7 +3.8 94 +4 +4 1009.3 951.8
02 17.05 штиль 0 н/о н/о +4.5 +3.8 95 +3 +3 1009.0 951.5
03 17.05 штиль 0 н/о н/о +4.4 +4.0 97 +3 +3 1008.7 951.2
04 17.05 штиль 0 н/о н/о +4.0 +3.6 97 +3 +3 1008.8 951.2
05 17.05 В 1
{2}
н/о н/о +5.0 +4.4 96 +3 +3 1008.5 951.1
06 17.05 штиль 0
{2}
н/о н/о +6.7 +5.3 91 +6 +6 1008.1 951.1 +3.9
07 17.05 штиль 0
{1}
н/о н/о +8.1 +5.9 86 +7 +7 1007.4 950.7
08 17.05 СВ 1
{1}
н/о н/о +10.1 +6.9 81 +11 +11 1006.4 950.2
09 17.05 ЮЗ 1
{3}
н/о н/о +13.1 +8.6 74 +13 +13 1005.3 949.7
10 17.05 В 1
{2}
н/о н/о +14.3 +8.5 68 +15 +15 1004.7 949.4
11 17.05 Ю 1
{3}
н/о н/о +15.4 +8.6 64 +16 +16 1004.4 949.3
12 17.05 З 3
{5}
н/о н/о +16.7 +8.9 60 +17 +17 1004.2 949.4
13 17.05 ЮЗ 2
{5}
н/о н/о +16.4 +8.7 60 +17 +17 1004.2 949.3
14 17.05 З 2
{4}
н/о н/о +16.0 +8.7 62 +16 +16 1004.1 949.2
15 17.05 З 2
{7}
н/о н/о +14.6 +7.6 63 +14 +14 1004.6 949.4
16 17.05 З 2
{6}
н/о н/о +14.9 +8.7 66 +15 +15 1004.9 949.7
17 17.05 З 3
{7}
н/о н/о +13.2 +9.6 79 +12 +12 1005.6 950.0
18 17.05 штиль 0
{7}
н/о н/о +11.6 +9.8 89 +11 +11 1006.4 950.5 +16.8 2
19 17.05 ЮВ 1
{3}
н/о н/о +11.0 +10.4 96 +11 +11 1006.6 950.5 0.9
20 17.05 штиль 0
{1}
н/о н/о +10.4 +10.1 98 +10 +10 1006.9 950.7
21 17.05 штиль 0
{3}
н/о н/о +10.0 +9.9 99 +9 +9 1007.2 950.9
22 17.05 штиль 0 н/о н/о +9.9 +9.8 99 +9 +9 1007.0 950.7
23 17.05 штиль 0 н/о н/о +9.9 +9.8 99 +9 +9 1006.9 950.6
00 18.05 штиль 0
{3}
н/о н/о +10.0 +9.9 99 +9 +9 1006.8 950.5
01 18.05 штиль 0 н/о н/о +9.8 +9.7 99 +9 +9 1006.6 950.3
02 18.05 В 1
{2}
н/о н/о +9.3 +9.2 99 +9 +9 1006.6 950.2
03 18.05 штиль 0
{2}
н/о н/о +9.3 +9.2 99 +8 +8 1006.3 949.9
04 18.05 штиль 0 н/о н/о +9.2 +9.1 99 +8 +8 1006.1 949.7 0.1
05 18.05 В 1
{1}
н/о н/о +9.5 +9.4 99 +10 +10 1006.1 949.8
06 18.05 СВ 1
{2}
н/о н/о +10.3 +10.2 99 +11 +11 1006.0 949.8 +9.2
07 18.05 ЮВ 1
{2}
н/о н/о +11.6 +10.9 95 +11 +11 1005.5 949.6
08 18.05 СЗ 1
{2}
н/о н/о +13.0 +10.6 85 +14 +14 1005.1 949.5
09 18.05 З 2
{3}
н/о н/о +13.3 +9.2 76 +13 +13 1004.7 949.2
10 18.05 штиль 0
{3}
н/о н/о +14.4 +8.6 68 +14 +14 1004.6 949.3
11 18.05 Ю 1
{3}
н/о н/о +15.3 +8.5 64 +16 +16 1004.3 949.2
12 18.05 З 1
{3}
н/о н/о +15.5 +9.0 65 +16 +16 1004.4 949.3
13 18.05 З 1
{3}
н/о н/о +15.6 +8.5 63 +17 +17 1004.3 949.3
14 18.05 З 1
{3}
н/о н/о +15.7 +9.0 64 +16 +16 1004.1 949.1
15 18.05 З 1
{3}
н/о н/о +15.8 +9.0 64 +17 +17 1003.8 948.8
16 18.05 З 2
{3}
н/о н/о +15.5 +9.5 67 +16 +16 1003.8 948.8
17 18.05 СЗ 1
{3}
н/о н/о +15.1 +8.3 64 +16 +16 1004.0 948.9
18 18.05 штиль 0
{3}
н/о н/о +14.4 +9.8 74 +14 +14 1004.3 949.0 +15.8
19 18.05 штиль 0 н/о н/о +12.9 +9.6 80 +12 +12 1005.2 949.6
20 18.05 штиль 0 н/о н/о +12.3 +10.1 86 +12 +12 1005.8 950.0
21 18.05 штиль 0
{2}
н/о н/о +11.6 +10.5 93 +11 +11 1006.0 950.1 0.1
22 18.05 штиль 0 н/о н/о +11.3 +10.7 96 +11 +11 1006.1 950.1 0.2
23 18.05 штиль 0 н/о н/о +10.8 +10.5 98 +10 +10 1006.1 950.0
00 19.05 штиль 0
{2}
н/о н/о +10.8 +10.4 97 +10 +10 1006.0 949.9
01 19.05 штиль 0 н/о н/о +10.7 +10.4 98 +10 +10 1006.0 949.9
02 19.05 штиль 0 н/о н/о +10.6 +10.4 99 +10 +10 1005.7 949.6
03 19.05 штиль 0 н/о н/о +10.4 +10.2 99 +10 +10 1005.6 949.5
04 19.05 штиль 0 н/о н/о +10.3 +10.1 99 +9 +9 1005.5 949.4
05 19.05 штиль 0 н/о н/о +10.4 +10.2 99 +10 +10 1005.5 949.4
06 19.05 штиль 0 н/о н/о +11.5 +11.1 97 +11 +11 1005.3 949.4 +10.2
07 19.05 штиль 0
{1}
н/о н/о +12.4 +10.7 89 +12 +12 1005.1 949.4

 

Местоположение метеостанции Мюлеберг (Швейцария): широта 46.98 долгота 7.28 высота над уровнем моря 483 м.

В архиве по умолчанию представлена погода в Мюлеберге за последнюю неделю. Архивные данные за месяц целиком и за предыдущие месяцы, начиная с января 2011 года, Вы можете получить, выбрав интересующий диапазон дат из раскрывающегося списка и нажав кнопку "Ввод!".


*Определитесь, кто Вы:
робот инопланетянин человек

Внимание! Время в таблицах - всемирное. Для получения местного времени необходимо прибавить поправку, которая равна 1 ч.

Смотрите также архив погоды в соседних городах и на ближайших метеорологических станциях:

Погода в Берне (Швейцария) (12 км)
Погода в Кресье (Швейцария) (18 км)
Погода на Шасрале (Швейцария) (23 км)
Погода в Гренхене (Швейцария) (25 км)
Погода в Невшателе (Швейцария) (25 км)
Погода в Плаффайен-Обершроте (Швейцария) (26 км)
Погода в Оберёш-Коппигене (Швейцария) (31 км)
Погода в Пейерне (Швейцария) (31 км)
Погода в Виммисе (Швейцария) (37 км)
Погода во Фрибург-Позиойксе (Швейцария) (37 км)

Пояснения к столбцам:

Ветер - указаны скорость ветра в м/с - средняя за 10 мин, порывы в срок и между сроками (в фигурных скобках) и направление, откуда дует ветер: С - северный, СВ - северо-восточный, В - восточный, ЮВ - юго-восточный, Ю - южный, ЮЗ - юго-западный, З - западный, СЗ - северо-западный.
Видимость - горизонтальная дальность видимости в метрах или километрах. При видимости от 1 до 10 км при отсутствии осадков обычно наблюдается дымка, при ухудшении видимости до 1 км и менее - туман. В сухую погоду видимость может ухудшаться дымом, пылью или мглою.
Явления - указаны атмосферные явления, наблюдавшиеся в срок или в последний час перед сроком; фигурными скобками обозначены явления, наблюдавшиеся между сроками (за 1-3 часа до срока); квадратными скобками обозначены град или гололедные отложения с указанием их диаметра в мм.
Облачность - указаны через наклонную черту общая и нижняя облачность в баллах и высота нижней границы облаков в метрах; квадратными скобками обозначены формы облаков: Ci - перистые, Cs - перисто-слоистые, Cc - перисто-кучевые, Ac - высококучевые, As - высокослоистые, Sc - слоисто-кучевые, Ns - слоисто-дождевые, Cu - кучевые, Cb - кучево-дождевые. Подробнее классификацию облаков см. в Атласе облаков (PDF).
T - Температура воздуха - температура, измеренная на высоте 2 м над землей.
Td - Температура точки росы - температура, при понижении до которой содержащийся в воздухе водяной пар достигнет насыщения.
f - Относительная влажность воздуха - влажноcть воздуха, измеренная на высоте 2 м над землей.
Te - Эффективная температура - температура, которую ощущает одетый по сезону человек в тени. Характеристика душности погоды. При расчете учитывается влияние влажности воздуха и скорости ветра на теплоощущения человека.
Tes - Эффективная температура на солнце - температура, которую ощущает человек, с поправкой на солнечный нагрев. Характеристика знойности погоды. Зависит от высоты солнца над горизонтом, облачности и скорости ветра. Ночью, в пасмурную погоду, а также при ветре 12 м/с и более поправка равна нулю.
P - Атмосферное давление - приведенное к уровню моря атмосферное давление.
Po - Атмосферное давление - измеренное на уровне метеостанции атмосферное давление.
Tmin - Минимальная температура - минимум температуры воздуха на высоте 2 м над землей.
Tmax - Максимальная температура - максимум температуры воздуха на высоте 2 м над землей.
R - Количество осадков - Количество выпавших осадков за период времени, мм. При наведении курсора мыши на число - период времени, за который выпало указанное количество осадков.
R24 - Количество осадков - Количество выпавших осадков за 24 часа, мм.
S - Снежный покров - Высота снежного покрова, см. При наведении курсора мыши на число - состояние снежного покрова и степень покрытия местности в баллах.